�������l�o���
Date,Time,MP-1(��Sv/h),MP-2(��Sv/h),MP-3(��Sv/h),MP-4(��Sv/h),MP-5(��Sv/h),MP-6(��Sv/h),MP-7(��Sv/h),����,����(m/s),���J
2017/11/19,00:00,0.338,0.218,0.362,0.339,0.319,0.174,0.105,�k�k��,9.6,��
2017/11/19,00:10,0.337,0.217,0.360,0.337,0.318,0.175,0.104,�k�k��,9.6,��
2017/11/19,00:20,0.337,0.217,0.359,0.335,0.318,0.175,0.104,�k�k��,10.4,��
2017/11/19,00:30,0.339,0.218,0.361,0.337,0.318,0.174,0.105,�k�k��,9.5,�L
2017/11/19,00:40,0.337,0.218,0.360,0.336,0.318,0.175,0.104,�k�k��,7.3,�L
2017/11/19,00:50,0.337,0.218,0.360,0.338,0.318,0.175,0.105,�k�k��,6.8,�L
2017/11/19,01:00,0.337,0.218,0.359,0.337,0.318,0.175,0.105,�k�k��,5.1,��
2017/11/19,01:10,0.338,0.217,0.360,0.337,0.317,0.175,0.104,�k�k��,1.4,��
2017/11/19,01:20,0.337,0.217,0.360,0.337,0.316,0.174,0.104,�k�k��,2.5,��
2017/11/19,01:30,0.337,0.217,0.359,0.336,0.317,0.174,0.104,�k,8.8,��
2017/11/19,01:40,0.337,0.218,0.358,0.337,0.316,0.173,0.104,�k,6.0,��
2017/11/19,01:50,0.337,0.217,0.360,0.337,0.317,0.174,0.104,�k�k��,6.2,��
2017/11/19,02:00,0.338,0.219,0.359,0.337,0.317,0.174,0.104,�k�k��,5.7,��
2017/11/19,02:10,0.338,0.217,0.359,0.337,0.317,0.176,0.103,�k�k��,6.7,��
2017/11/19,02:20,0.337,0.217,0.358,0.338,0.316,0.174,0.103,�k�k��,6.1,��
2017/11/19,02:30,0.338,0.218,0.360,0.337,0.315,0.174,0.104,�k,5.6,��
2017/11/19,02:40,0.337,0.216,0.359,0.337,0.316,0.174,0.104,�k,6.9,��
2017/11/19,02:50,0.335,0.218,0.358,0.336,0.317,0.175,0.104,�k,6.4,��
2017/11/19,03:00,0.337,0.217,0.359,0.336,0.315,0.174,0.103,�k,5.0,��
2017/11/19,03:10,0.338,0.218,0.359,0.336,0.314,0.175,0.104,�k�k��,7.1,��
2017/11/19,03:20,0.337,0.216,0.359,0.337,0.316,0.174,0.103,�k�k��,7.0,��
2017/11/19,03:30,0.336,0.217,0.358,0.336,0.315,0.174,0.103,�k�k��,6.8,��
2017/11/19,03:40,0.338,0.218,0.359,0.336,0.316,0.174,0.103,�k��,5.4,��
2017/11/19,03:50,0.337,0.216,0.358,0.337,0.314,0.174,0.103,�k�k��,5.9,��
2017/11/19,04:00,0.336,0.217,0.359,0.337,0.314,0.173,0.104,�k,7.1,��
2017/11/19,04:10,0.336,0.217,0.359,0.336,0.315,0.174,0.103,�k,7.4,��
2017/11/19,04:20,0.337,0.218,0.359,0.336,0.316,0.174,0.104,�k�k��,6.0,��
2017/11/19,04:30,0.338,0.218,0.359,0.337,0.316,0.175,0.104,�k�k��,8.2,��
2017/11/19,04:40,0.336,0.216,0.360,0.336,0.315,0.174,0.102,�k�k��,7.1,��
2017/11/19,04:50,0.339,0.216,0.360,0.337,0.316,0.174,0.104,�k��,6.7,��
2017/11/19,05:00,0.337,0.217,0.358,0.337,0.315,0.174,0.103,�k��,9.0,��
2017/11/19,05:10,0.337,0.217,0.358,0.337,0.315,0.174,0.104,�k�k��,8.2,��
2017/11/19,05:20,0.337,0.218,0.360,0.337,0.315,0.174,0.104,�k�k��,4.9,��
2017/11/19,05:30,0.338,0.215,0.360,0.336,0.315,0.175,0.104,�k�k��,5.2,��
2017/11/19,05:40,0.337,0.218,0.359,0.336,0.316,0.175,0.104,�k�k��,4.8,��
2017/11/19,05:50,0.338,0.217,0.357,0.338,0.315,0.173,0.103,�k�k��,6.2,��
2017/11/19,06:00,0.339,0.217,0.359,0.336,0.314,0.173,0.104,�k�k��,5.7,��
2017/11/19,06:10,0.337,0.216,0.360,0.335,0.315,0.174,0.103,�k�k��,4.8,��
2017/11/19,06:20,0.337,0.216,0.358,0.337,0.316,0.174,0.103,�k�k��,2.4,��
2017/11/19,06:30,0.337,0.216,0.359,0.337,0.316,0.174,0.103,�k�k��,0.9,��
2017/11/19,06:40,0.337,0.218,0.360,0.337,0.314,0.174,0.104,�k��,2.9,��
2017/11/19,06:50,0.336,0.217,0.358,0.336,0.315,0.173,0.103,�k�k��,4.1,��
2017/11/19,07:00,0.338,0.216,0.359,0.337,0.316,0.174,0.104,�k��,4.1,��
2017/11/19,07:10,0.335,0.216,0.359,0.335,0.317,0.174,0.103,�k�k��,4.1,��
2017/11/19,07:20,0.337,0.217,0.359,0.336,0.315,0.174,0.103,�k��,4.4,��
2017/11/19,07:30,0.337,0.218,0.358,0.336,0.316,0.174,0.104,�k��,3.1,��
2017/11/19,07:40,0.337,0.217,0.359,0.335,0.316,0.175,0.103,�k�k��,1.7,��
2017/11/19,07:50,0.337,0.217,0.358,0.334,0.315,0.174,0.102,�k�k��,2.3,��
2017/11/19,08:00,0.336,0.217,0.358,0.336,0.315,0.173,0.104,�k��,2.2,��
2017/11/19,08:10,0.336,0.218,0.359,0.335,0.314,0.174,0.103,�k,3.6,��
2017/11/19,08:20,0.338,0.216,0.360,0.334,0.315,0.174,0.103,�k,2.3,��
2017/11/19,08:30,0.337,0.216,0.359,0.336,0.316,0.174,0.103,�k�k��,2.3,��
2017/11/19,08:40,0.336,0.216,0.358,0.335,0.314,0.174,0.102,�k,1.9,��
2017/11/19,08:50,0.335,0.217,0.359,0.334,0.315,0.175,0.104,�k,1.3,��
2017/11/19,09:00,0.337,0.216,0.360,0.338,0.317,0.174,0.103,�k��,2.2,��
2017/11/19,09:10,0.335,0.216,0.358,0.333,0.314,0.175,0.103,�k��,3.9,��
2017/11/19,09:20,0.336,0.216,0.360,0.334,0.315,0.174,0.103,�k��,4.1,��
2017/11/19,09:30,0.337,0.216,0.360,0.333,0.316,0.175,0.103,�k�k��,4.6,��
2017/11/19,09:40,0.336,0.215,0.360,0.337,0.314,0.174,0.103,�k�k��,4.0,��
2017/11/19,09:50,0.335,0.216,0.358,0.334,0.318,0.175,0.103,�k�k��,4.0,��
2017/11/19,10:00,0.336,0.217,0.358,0.336,0.313,0.175,0.102,�k�k��,4.0,��
2017/11/19,10:10,0.334,0.217,0.358,0.333,0.316,0.174,0.103,�k�k��,4.1,��
2017/11/19,10:20,0.335,0.217,0.357,0.336,0.314,0.174,0.103,�k,3.7,��
2017/11/19,10:30,0.335,0.215,0.359,0.333,0.316,0.173,0.103,�k�k��,3.1,��
2017/11/19,10:40,0.335,0.217,0.359,0.335,0.315,0.175,0.104,�k,4.3,��
2017/11/19,10:50,0.336,0.216,0.358,0.334,0.315,0.174,0.103,�k�k��,4.4,��
2017/11/19,11:00,0.335,0.217,0.357,0.335,0.314,0.175,0.104,�k�k��,4.1,��
2017/11/19,11:10,0.337,0.217,0.360,0.335,0.315,0.174,0.103,�k�k��,2.7,��
2017/11/19,11:20,0.336,0.217,0.359,0.337,0.317,0.175,0.104,�k,2.8,��
2017/11/19,11:30,0.336,0.217,0.358,0.336,0.316,0.174,0.104,�k,3.5,��
2017/11/19,11:40,0.338,0.216,0.360,0.336,0.317,0.174,0.103,�k�k��,3.2,��
2017/11/19,11:50,0.334,0.217,0.359,0.337,0.316,0.174,0.102,�k,1.8,��
2017/11/19,12:00,0.337,0.217,0.359,0.336,0.317,0.174,0.103,�k��,1.9,��
2017/11/19,12:10,0.338,0.218,0.359,0.335,0.317,0.175,0.103,�k�k��,1.3,��
2017/11/19,12:20,0.336,0.218,0.359,0.338,0.317,0.174,0.103,�k,1.0,��
2017/11/19,12:30,0.338,0.217,0.359,0.336,0.318,0.176,0.104,�k,4.3,��
2017/11/19,12:40,0.337,0.218,0.360,0.337,0.317,0.175,0.104,�k,2.1,��
2017/11/19,12:50,0.337,0.217,0.360,0.338,0.316,0.174,0.104,�k,2.2,��
2017/11/19,13:00,0.338,0.219,0.358,0.338,0.317,0.175,0.103,�k,3.3,��
2017/11/19,13:10,0.338,0.218,0.360,0.336,0.317,0.175,0.104,�k,2.8,��
2017/11/19,13:20,0.337,0.217,0.360,0.337,0.317,0.175,0.103,�k,1.6,��
2017/11/19,13:30,0.339,0.218,0.358,0.335,0.319,0.175,0.103,�k�k��,0.9,��
2017/11/19,13:40,0.338,0.218,0.359,0.336,0.316,0.175,0.103,�k,0.9,��
2017/11/19,13:50,0.336,0.218,0.359,0.337,0.316,0.176,0.104,�k,1.5,��
2017/11/19,14:00,0.338,0.217,0.359,0.337,0.316,0.174,0.103,-,CALM,��
2017/11/19,14:10,0.338,0.218,0.359,0.337,0.316,0.176,0.104,-,CALM,��
2017/11/19,14:20,0.336,0.217,0.360,0.338,0.317,0.176,0.104,�k,1.2,��
2017/11/19,14:30,0.337,0.217,0.359,0.336,0.316,0.175,0.103,�k,1.4,��
2017/11/19,14:40,0.339,0.217,0.360,0.337,0.316,0.174,0.104,�k,2.2,��
2017/11/19,14:50,0.337,0.218,0.359,0.339,0.318,0.173,0.104,�k�k��,1.6,��
2017/11/19,15:00,0.337,0.216,0.358,0.335,0.318,0.175,0.104,�k�k��,2.6,��
2017/11/19,15:10,0.338,0.217,0.360,0.338,0.318,0.176,0.104,�k,2.8,��
2017/11/19,15:20,0.337,0.218,0.360,0.336,0.317,0.175,0.104,�k�k��,1.3,��
2017/11/19,15:30,0.335,0.216,0.359,0.337,0.316,0.175,0.104,��,1.8,��
2017/11/19,15:40,0.337,0.217,0.360,0.336,0.318,0.176,0.103,���k��,2.9,��
2017/11/19,15:50,0.335,0.217,0.360,0.338,0.318,0.176,0.104,���k��,3.4,��
2017/11/19,16:00,0.336,0.218,0.361,0.338,0.316,0.175,0.104,���k��,3.5,��
2017/11/19,16:10,0.338,0.217,0.361,0.338,0.318,0.175,0.104,���k��,5.2,��
2017/11/19,16:20,0.338,0.218,0.360,0.337,0.318,0.176,0.104,���k��,4.9,��
2017/11/19,16:30,0.339,0.219,0.360,0.338,0.316,0.176,0.103,���k��,6.4,��
2017/11/19,16:40,0.339,0.217,0.360,0.337,0.316,0.175,0.103,���k��,5.0,��
2017/11/19,16:50,0.339,0.218,0.360,0.336,0.317,0.175,0.104,���k��,5.9,��
2017/11/19,17:00,0.338,0.218,0.360,0.340,0.317,0.176,0.104,�k��,6.0,��
2017/11/19,17:10,0.337,0.218,0.359,0.337,0.316,0.175,0.103,���k��,6.7,��
2017/11/19,17:20,0.338,0.217,0.359,0.337,0.315,0.175,0.104,���k��,7.3,��
2017/11/19,17:30,0.339,0.218,0.362,0.338,0.318,0.176,0.105,���k��,5.7,��
2017/11/19,17:40,0.338,0.217,0.362,0.338,0.318,0.174,0.104,�k��,5.0,��
2017/11/19,17:50,0.336,0.217,0.359,0.338,0.317,0.175,0.104,�k��,3.3,��
2017/11/19,18:00,0.338,0.218,0.361,0.337,0.318,0.174,0.104,���k��,3.9,��
2017/11/19,18:10,0.339,0.218,0.362,0.338,0.317,0.176,0.104,�k��,3.6,��
2017/11/19,18:20,0.337,0.217,0.361,0.338,0.316,0.176,0.104,���k��,4.3,��
2017/11/19,18:30,0.339,0.217,0.360,0.337,0.317,0.176,0.103,�k�k��,2.2,��
2017/11/19,18:40,0.339,0.219,0.361,0.337,0.319,0.174,0.104,�k�k��,2.3,��
2017/11/19,18:50,0.338,0.218,0.361,0.337,0.315,0.175,0.104,�k��,2.0,��
2017/11/19,19:00,0.337,0.218,0.361,0.339,0.316,0.175,0.103,-,CALM,��
2017/11/19,19:10,0.339,0.217,0.359,0.337,0.316,0.175,0.104,�k,1.6,��
2017/11/19,19:20,0.338,0.217,0.361,0.337,0.317,0.175,0.104,�k,3.2,��
2017/11/19,19:30,0.337,0.218,0.361,0.340,0.316,0.175,0.104,�k,5.4,��
2017/11/19,19:40,0.338,0.218,0.360,0.337,0.315,0.175,0.104,�k,5.6,��
2017/11/19,19:50,0.338,0.217,0.360,0.338,0.317,0.174,0.104,�k,3.0,��
2017/11/19,20:00,0.341,0.218,0.360,0.336,0.317,0.175,0.104,��,1.9,��
2017/11/19,20:10,0.338,0.218,0.361,0.337,0.315,0.175,0.104,��,3.9,��
2017/11/19,20:20,0.338,0.219,0.362,0.337,0.316,0.176,0.104,��,4.8,��
2017/11/19,20:30,0.339,0.218,0.360,0.339,0.316,0.175,0.103,��,2.7,��
2017/11/19,20:40,0.338,0.217,0.361,0.338,0.317,0.175,0.104,�쓌,1.0,��
2017/11/19,20:50,0.338,0.218,0.360,0.339,0.315,0.176,0.104,��쐼,1.5,��
2017/11/19,21:00,0.338,0.218,0.360,0.338,0.315,0.176,0.104,���k��,3.0,��
2017/11/19,21:10,0.338,0.217,0.359,0.338,0.316,0.175,0.104,��,3.4,��
2017/11/19,21:20,0.337,0.218,0.360,0.338,0.316,0.174,0.104,�k��,2.9,��
2017/11/19,21:30,0.338,0.216,0.360,0.338,0.318,0.175,0.104,�k��,3.9,��
2017/11/19,21:40,0.339,0.216,0.360,0.337,0.316,0.175,0.103,�k,2.5,��
2017/11/19,21:50,0.337,0.217,0.359,0.338,0.316,0.175,0.103,�k,5.7,��
2017/11/19,22:00,0.338,0.218,0.359,0.338,0.318,0.175,0.105,�k,3.8,��
2017/11/19,22:10,0.338,0.217,0.359,0.339,0.317,0.175,0.105,�k�k��,2.8,��
2017/11/19,22:20,0.339,0.217,0.362,0.338,0.316,0.175,0.104,�k�k��,2.8,��
2017/11/19,22:30,0.340,0.219,0.361,0.337,0.316,0.175,0.103,�k,3.5,��
2017/11/19,22:40,0.339,0.218,0.360,0.338,0.317,0.176,0.105,�k,3.2,��
2017/11/19,22:50,0.338,0.218,0.358,0.338,0.317,0.175,0.105,�k�k��,2.3,��
2017/11/19,23:00,0.338,0.217,0.360,0.338,0.316,0.175,0.105,�k�k��,3.5,��
2017/11/19,23:10,0.340,0.218,0.360,0.337,0.316,0.175,0.105,�k,4.4,��
2017/11/19,23:20,0.339,0.217,0.359,0.338,0.316,0.175,0.104,�k,4.6,��
2017/11/19,23:30,0.337,0.218,0.360,0.338,0.317,0.176,0.104,�k�k��,2.6,��
2017/11/19,23:40,0.339,0.217,0.360,0.338,0.316,0.175,0.105,�k��,2.4,��
2017/11/19,23:50,0.338,0.218,0.359,0.338,0.317,0.175,0.104,���k��,3.5,��
